Regional Weather Roundup
Issued by NWS

Home | Current Version | Previous Version | Text Only | Print | Product List | Glossary On
Versions: 1 2 3 4 5 6 7 8 9 10 11 12 13 14 15 16 17 18 19 20 21 22 23 24 25 26 27 28 29 30 31 32 33 34 35 36 37 38 39 40 41 42 43 44 45 46 47 48 49 50
850
ASUS45 KTFX 091610
RWRMT
MONTANA REGIONAL WEATHER ROUNDUP
NATIONAL WEATHER SERVICE GREAT FALLS MT
900 AM MST TUE FEB 09 2016

NOTE: "FAIR" INDICATES FEW OR NO CLOUDS BELOW 12000 FEET WITH NO
SIGNIFICANT WEATHER AND/OR OBSTRUCTIONS TO VISIBILITY.

MTZ001>007-043-091700-
WEST OF THE DIVIDE

CITY           SKY/WX    TMP DP  RH WIND       PRES   REMARKS
KALISPELL      CLEAR     20  17  88 CALM      30.50S
MISSOULA       FOG       19  17  92 SW5       30.53S VSB 1/2
BUTTE          FOG       13  10  88 CALM      30.48S VSB<1/4
MULLAN PASS    CLEAR     38  30  73 S6        30.43F
ANACONDA         N/A     32  27  80 CALM      30.47F
DEER LODGE       N/A     25  25 100 CALM      30.49S
HAMILTON         N/A     28  27  93 SE3       30.50F
LIBBY            N/A     19  18  93 CALM      30.54S VSB 0
$$

MTZ008-052>055-091700-
SOUTHWEST MONTANA

CITY           SKY/WX    TMP DP  RH WIND       PRES   REMARKS
BOZEMAN        CLOUDY    18  16  92 SE5       30.46S
DILLON         CLOUDY    28  22  78 S10       30.47S WCI  19
ENNIS          SUNNY     30  25  80 S9        30.54R WCI  22
TWIN BRIDGES     N/A     23  16  75 SE6       30.40F WCI  16
$$

MTZ009-010-012-014-046-048-049-054-091700-
EAST SLOPES AND CENTRAL MONTANA

CITY           SKY/WX    TMP DP  RH WIND       PRES   REMARKS
CUT BANK       CLEAR     43  29  57 W9        30.26F
GREAT FALLS    SUNNY     46  29  51 SW17      30.29F
MALMSTROM AFB  SUNNY     45  30  55 SW16      30.29F
HELENA         CLOUDY    33  28  81 NE3       30.43S
CHOTEAU          N/A     46  23  39 SW9       30.29F
CONRAD           N/A     40  29  65 CALM      30.25F
$$

MTZ011-013-016-021-045-047-050-051-091700-
NORTH CENTRAL MONTANA

CITY           SKY/WX    TMP DP  RH WIND       PRES   REMARKS
HAVRE          SUNNY     36  29  75 SW15      30.24F WCI  27
LEWISTOWN      SUNNY     40  24  53 W10       30.29S
N BAR RANCH      N/A     50  21  32 NW20      30.27S
CHINOOK          N/A     30  28  93 CALM      30.24F
$$

MTZ017>020-022>027-061-062-091700-
NORTHEAST MONTANA

CITY           SKY/WX    TMP DP  RH WIND       PRES   REMARKS
GLASGOW        CLOUDY    31  26  82 SW5       30.21F
JORDAN           N/A     34  30  85 W9        30.23F WCI  27
SIDNEY         CLOUDY    36  25  64 NW9       30.23S WCI  29
WOLF POINT     CLOUDY    34  28  79 W3        30.23F
PLENTYWOOD       N/A     30  25  80 NW6       30.21R WCI  24
POPLAR           N/A     32  28  86 W6        30.23F WCI  26
$$

MTZ028>42-056>058-091700-
SOUTHCENTRAL AND SOUTHEAST MONTANA

CITY           SKY/WX    TMP DP  RH WIND       PRES   REMARKS
BAKER          CLOUDY    34  26  72 W12       30.23R WCI  25
BILLINGS       MOSUNNY   36  22  56 SW18      30.29F WCI  26
LIVINGSTON     CLOUDY    44  22  41 SW32G39   30.37S
MILES CITY     CLOUDY    32  28  85 SW7       30.25S WCI  26
FORSYTH          N/A     34  28  80 W8        30.26S WCI  27
LAUREL           N/A     36  16  44 SW10      30.26F WCI  28
ROUNDUP          N/A     44  28  53 S3        30.16S
$$

REGIONAL REPORTS...DAKOTAS

CITY           SKY/WX    TMP DP  RH WIND       PRES   REMARKS
WILLISTON      CLOUDY    32  24  72 N12       30.22S WCI  23
MINOT          CLOUDY    29  10  45 SW14      30.20S WCI  18
DICKINSON      CLOUDY    31  21  66 NW12      30.16S WCI  22
BEACH          CLOUDY    36  27  69 NW15      30.22F WCI  26
CROSBY         PTSUNNY   25  25 100 NW8       30.23R WCI  16
TIOGA          PTSUNNY   25  25 100 W6        30.24R WCI  18
WATFORD CITY   CLOUDY    30  23  74 NW9       30.21S WCI  22
BISMARCK       CLOUDY    28  11  48 SW7       30.25S WCI  21
GRAND FORKS    FLURRIES  11   4  73 N14       30.31R WCI  -5
FARGO          CLOUDY    12   4  70 N12       30.30R WCI  -2
BUFFALO SD       N/A     40  29  64 NW20      30.13R
RAPID CITY     CLOUDY    33  23  66 SE3       30.18F
$$

REGIONAL REPORTS...WYOMING/IDAHO/WASHINGTON

CITY           SKY/WX    TMP DP  RH WIND       PRES   REMARKS
GILLETTE       PTSUNNY   42  30  62 W6        30.27S
SHERIDAN       SUNNY     45  27  49 SW5       30.26F
BUFFALO WY     SUNNY     45  27  49 CALM      30.29R
CODY           SUNNY     34  25  69 NE5       30.34R
YELLOWSTONE LA   N/A     14  13  95 CALM      30.56F
IDAHO FALLS    FOG       10   7  87 N8        30.61S VSB 1/8 WCI  -2
SALMON         CLOUDY    10   9  92 CALM      30.66S
BOISE          CLOUDY    28  23  81 S12       30.60S WCI  18
SPOKANE        PTCLDY    32  29  88 NE8       30.43F WCI  25
$$

REGIONAL REPORTS...ALBERTA

CITY           SKY/WX    TMP DP  RH WIND       PRES   REMARKS
EDMONTON       MOCLDY    37  27  65 SW8       30.09F WCI  31
CALGARY        MOCLDY    37  23  56 S7        30.18F
LETHBRIDGE     PTCLDY    43  28  56 SW13      30.22F
MEDICINE HAT   MOCLDY    36  32  87 SW8       30.20F WCI  29
WATERTON GATE    N/A     45  28  53 SW32G43     N/A
CARDSTON         N/A     37  25  60 E2          N/A
ONEFOUR          N/A     39  27  60 NW17        N/A  WCI  30
$$

REGIONAL REPORTS...SASKATCHEWAN

CITY           SKY/WX    TMP DP  RH WIND       PRES   REMARKS
SWIFT CURRENT  CLOUDY    34  28  80 SW6       30.15F WCI  29
REGINA         FLURRIES  23  21  93 CALM      30.20F
SASKATOON      HAIL      25  21  86 SE7       30.20S WCI  17
CYPRESS HILLS    N/A     45  23  42 NW10        N/A
VAL MARIE        N/A     32  28  86 S1          N/A
ROCKGLEN         N/A     32  27  80 N5          N/A
ASSINIBOIA       N/A     36  30  80 SW12        N/A  WCI  27
$$




USA.gov is the U.S. government's official web portal to all federal, state and local government web resources and services.